Other Surface Observations
Issued by NWS

Home | Current Version | Previous Version | Text Only | Print | Product List | Glossary On
Versions: 1 2 3 4 5 6 7 8 9 10 11 12 13 14 15 16 17 18 19 20 21 22 23 24 25 26 27 28 29 30 31 32 33 34 35 36 37 38 39 40 41 42 43 44 45 46 47 48 49 50
000
SXUS52 KTAE 200818
OSOTAE
OSOTAE
North Florida/South Alabama/Southwest Georgia Weather Roundup
National Weather Service Tallahassee Florida
300 AM EST TUE FEB 20 2018

Note: "fair" indicates few or no clouds below 12,000 feet with no
significant weather and/or obstructions to visibility.

!FLZ017-115-028-034-025-200900
...North Florida...

CITY           SKY/WX    TMP DP  RH WIND       PRES   REMARKS
TALLAHASSEE    FAIR      64  62  93 E7        30.27F
APALACHICOLA   FAIR      69  66  90 E9        30.24F
PERRY          FAIR      67  64  91 E6        30.29F
CROSS CITY     FAIR      66 N/A N/A E3        30.34S
JACKSONVILLE   FAIR      61  60  97 CALM      30.32S FOG
$$

!FLZ112-006-005-002-011-200900
...Florida Panhandle...

CITY           SKY/WX    TMP DP  RH WIND       PRES   REMARKS
MARIANNA       FAIR      64  59  83 E5        30.25F
BONIFAY        NOT AVBL
PANAMA CITY NW FAIR      63  60  90 NE5       30.23F
TYNDALL AFB    FAIR      66  62  86 E6        30.25F
TYND DRONE APT FAIR      65  61  87 E5        30.24F
DE FUNIAK SPR  FAIR      63  60  89 SE6       30.25S
EGLIN AFB      PTCLDY    66  64  91 E7        30.22F
DESTIN         FAIR      70  62  76 E7        30.23S
HURLBURT       MOCLDY    67  65  91 E6        30.21S
CRESTVIEW      FAIR      56  54  93 CALM      30.25S FOG
PENSACOLA      CLOUDY    69  66  90 SE7       30.22S
$$

!ALZ063-066-200900
...South Alabama...

CITY           SKY/WX    TMP DP  RH WIND       PRES   REMARKS
DOTHAN         FAIR      63  60  90 SE7       30.30S
OZARK CAIRNS   CLEAR     61  58  90 E3        30.26
FT RUCKER HELI FAIR      56  56  99 CALM      30.26S
RUCKER HELI 3    N/A    N/A N/A N/A MISG        N/A
RUCKER HELI 2  FAIR      60  58  92 SE3       30.25S
FLORALA APT    NOT AVBL
ANDALUSIA      FAIR      64  60  87 E3        30.24R
TROY           FAIR      59  57  93 CALM      30.26S
EUFALA         FAIR      64  60  87 E8        30.27S
MOBILE         CLOUDY    68  66  93 SE8       30.21F
$$

!GAZ120>161-200900
...Southwest and South Central Georgia...

CITY           SKY/WX    TMP DP  RH WIND       PRES   REMARKS
THOMASVILLE    FAIR     N/A N/A N/A SE3       30.31S
BAINBRIDGE     FAIR      63  63 100 E5        30.28F
MOODY AFB      FAIR      64  64 100 SE6       30.30F
VALDOSTA       FAIR      64  62  93 CALM      30.31S
MOULTRIE       FAIR      63  61  94 E3        30.31S
BLAKELY        FAIR      59  55  88 CALM      30.29S
ALBANY         FAIR      64  61  90 E5        30.31F
TIFTON         FAIR     N/A N/A N/A CALM      30.31F
FITZGERALD     FAIR      64  64 100 CALM      30.35S
CORDELE        FAIR      69  64  84 SE8       30.33S
AMERICUS       FAIR      63  55  77 SE3       30.33S
HOMERVILLE     FAIR      61  61 100 E3        30.32F FOG
$$

!GMZ750-755-770-775-200900
...Coastal and Buoy Obs...

STATION/POSITION TIME  TEMP    WIND        PRES    VSBY  WAVE
                       AIR SEA DIR/SP/G                  HT/PER
                 (UTC) (F)     (DEG/KT/KT) (MB)    (MI)  (FT/S)
KEATON BEACH     0800   68      90/  7/  8 1025.6F
CEDAR KEY        0800   70     110/ 11/ 12 1025.7F
C TOWER          0800   67     120/ 14/ 15 1024.6S
APALACHICOLA BUO NOT AVBL
PANAMA CITY BUOY 0750   73 73  100/ 12/ 16 1022.8S         4/ 7
MOBILE BUOY      0800      71  110/ 12/ 16 1021.9
ORANGE BCH AL BU NOT AVBL
$$




USA.gov is the U.S. government's official web portal to all federal, state and local government web resources and services.